EW1090 Weather Reports


Display with metric or nautical units.
time (UTC)temp
F
wind
direction
speed
MPH
gust
MPH
rain 1hr
in
rain 24hr
in
rain mn
in
humidity
%
barometer
mb
20191118111827 43 286 0.0 0.0 0.00 0.00 0.00 90 1015.1
20191118110330 43 286 0.0 0.0 0.00 0.00 0.00 89 1015.2
20191118104828 43 286 0.0 0.0 0.00 0.00 0.00 88 1015.2
20191118103335 44 286 0.0 0.0 0.00 0.00 0.00 87 1015.1
20191118101834 45 286 0.0 0.0 0.00 0.00 0.00 86 1015.0
20191118100339 45 286 0.0 0.0 0.00 0.00 0.00 86 1015.0
20191118094838 45 286 0.0 0.0 0.00 0.00 0.00 85 1014.9
20191118093339 46 286 0.0 0.0 0.00 0.00 0.00 84 1014.9
20191118091822 46 286 0.0 0.0 0.00 0.00 0.00 83 1015.0
20191118090323 46 286 0.0 1.0 0.00 0.00 0.00 84 1015.0
20191118084825 46 287 0.0 0.0 0.00 0.00 0.00 84 1014.9
20191118083326 46 287 0.0 1.0 0.00 0.00 0.00 83 1014.8
20191118081824 46 287 0.0 1.0 0.00 0.00 0.00 84 1014.8
20191118080330 46 290 0.0 1.0 0.00 0.00 0.00 84 1014.9
20191118074829 46 290 0.0 0.0 0.00 0.00 0.00 84 1014.9
20191118073335 46 290 0.0 0.0 0.00 0.00 0.00 84 1015.2
20191118071834 47 290 0.0 0.0 0.00 0.00 0.00 84 1015.1
20191118070335 47 290 0.0 0.0 0.00 0.00 0.00 83 1015.3
20191118064839 47 290 0.0 0.0 0.00 0.00 0.00 82 1015.3
20191118063340 48 290 0.0 0.0 0.00 0.00 0.00 81 1015.4
20191118061824 49 290 0.0 0.0 0.00 0.00 0.00 80 1015.6
20191118060327 49 290 0.0 0.0 0.00 0.00 0.00 79 1015.5
20191118054824 49 290 0.0 0.0 0.00 0.00 0.00 79 1015.8
20191118053330 50 290 0.0 0.0 0.00 0.00 0.00 77 1015.8
20191118051829 50 290 0.0 1.0 0.00 0.00 0.00 77 1015.8
20191118050331 50 290 0.0 0.0 0.00 0.00 0.00 77 1015.7
20191118044834 50 290 0.0 0.0 0.00 0.00 0.00 77 1015.8
20191118043335 50 290 0.0 0.0 0.00 0.00 0.00 77 1015.8
20191118041839 50 290 0.0 0.0 0.00 0.00 0.00 78 1015.8
20191118040340 50 290 0.0 0.0 0.00 0.00 0.00 79 1015.7
20191118034840 50 290 0.0 0.0 0.00 0.00 0.00 79 1015.8
20191118033325 50 290 0.0 0.0 0.00 0.00 0.00 78 1015.7
20191118031825 51 290 0.0 0.0 0.00 0.00 0.00 78 1015.5
20191118030330 51 290 0.0 0.0 0.00 0.00 0.00 78 1015.6
20191118024830 51 290 0.0 0.0 0.00 0.00 0.00 78 1015.4
20191118023331 51 290 0.0 0.0 0.00 0.00 0.00 78 1015.3
20191118021834 50 290 0.0 0.0 0.00 0.00 0.00 78 1015.4
20191118020334 51 290 0.0 0.0 0.00 0.00 0.00 77 1015.3
20191118014838 51 290 0.0 0.0 0.00 0.00 0.00 77 1015.2
20191118013340 51 290 0.0 0.0 0.00 0.00 0.00 76 1015.2
20191118011840 52 290 0.0 0.0 0.00 0.00 0.00 75 1015.4
20191118010326 52 290 0.0 0.0 0.00 0.00 0.00 73 1015.1
20191118004825 53 290 0.0 0.0 0.00 0.00 0.00 72 1014.9
20191118003331 53 290 0.0 0.0 0.00 0.00 0.00 71 1014.8
20191118001829 54 290 0.0 0.0 0.00 0.00 0.00 69 1014.8
20191118000332 55 290 0.0 0.0 0.00 0.00 0.00 66 1014.7
20191117234834 56 290 0.0 0.0 0.00 0.00 0.00 63 1014.6
20191117233336 58 290 0.0 0.0 0.00 0.00 0.00 61 1014.7
20191117231836 59 290 0.0 0.0 0.00 0.00 0.00 58 1014.5
20191117230341 61 290 0.0 0.0 0.00 0.00 0.00 54 1014.5
20191117224839 62 290 0.0 1.0 0.00 0.00 0.00 50 1014.6
20191117223325 63 290 0.0 3.0 0.00 0.00 0.00 48 1014.7
20191117221824 63 302 0.0 3.0 0.00 0.00 0.00 46 1015.0
20191117220326 64 304 1.0 4.0 0.00 0.00 0.00 44 1015.1
20191117214829 64 293 1.0 6.0 0.00 0.00 0.00 45 1015.1
20191117213330 65 236 2.0 5.0 0.00 0.00 0.00 44 1015.1
20191117211833 65 307 3.0 7.0 0.00 0.00 0.00 44 1015.2
20191117210335 64 288 1.0 6.0 0.00 0.00 0.00 47 1015.2
20191117204834 64 307 4.0 7.0 0.00 0.00 0.00 46 1015.5
20191117203339 64 292 2.0 6.0 0.00 0.00 0.00 49 1015.6
20191117201837 63 34 0.0 3.0 0.00 0.00 0.00 53 1015.6
20191117200342 63 300 1.0 6.0 0.00 0.00 0.00 51 1016.0
20191117194822 63 296 1.0 4.0 0.00 0.00 0.00 50 1016.1
20191117193323 63 67 1.0 4.0 0.00 0.00 0.00 48 1016.2
20191117191825 62 42 0.0 5.0 0.00 0.00 0.00 53 1016.3
20191117190327 63 43 1.0 4.0 0.00 0.00 0.00 56 1016.5
20191117184830 63 59 1.0 4.0 0.00 0.00 0.00 58 1016.8
20191117183331 62 71 0.0 3.0 0.00 0.00 0.00 64 1017.1
20191117181829 61 12 1.0 5.0 0.00 0.00 0.00 66 1017.3
20191117180336 62 291 3.0 6.0 0.00 0.00 0.00 64 1017.5
20191117174836 61 44 1.0 3.0 0.00 0.00 0.00 65 1017.9
20191117173339 61 295 0.0 4.0 0.00 0.00 0.00 66 1018.2
20191117171841 60 292 1.0 3.0 0.00 0.00 0.00 65 1018.5
20191117170343 59 15 1.0 5.0 0.00 0.00 0.00 67 1018.8
20191117164825 58 36 0.0 3.0 0.00 0.00 0.00 69 1019.2
20191117163326 58 281 1.0 3.0 0.00 0.00 0.00 69 1019.3
20191117161824 57 350 0.0 2.0 0.00 0.00 0.00 70 1019.4
20191117160330 56 275 0.0 3.0 0.00 0.00 0.00 72 1019.6
20191117154830 56 320 1.0 2.0 0.00 0.00 0.00 71 1019.7
20191117153334 55 57 0.0 3.0 0.00 0.00 0.00 73 1019.7
20191117151834 55 26 0.0 2.0 0.00 0.00 0.00 74 1019.9
20191117150335 54 32 0.0 4.0 0.00 0.00 0.00 75 1019.7
20191117144839 54 57 0.0 4.0 0.00 0.00 0.00 77 1019.7
20191117143341 53 45 0.0 3.0 0.00 0.00 0.00 80 1019.8
20191117141843 51 48 0.0 3.0 0.00 0.00 0.00 84 1019.7
20191117140324 49 42 1.0 3.0 0.00 0.00 0.00 91 1019.6
20191117134823 46 36 0.0 2.0 0.00 0.00 0.00 94 1019.3
20191117133329 43 37 0.0 0.0 0.00 0.00 0.00 94 1019.1
20191117131828 43 37 0.0 0.0 0.00 0.00 0.00 93 1019.3
20191117130334 42 37 0.0 0.0 0.00 0.00 0.00 92 1019.0
20191117124833 42 37 0.0 0.0 0.00 0.00 0.00 92 1018.9
20191117123335 42 37 0.0 0.0 0.00 0.00 0.00 92 1018.8
20191117121838 42 37 0.0 0.0 0.00 0.00 0.00 92 1018.7
20191117120339 42 37 0.0 0.0 0.00 0.00 0.00 91 1018.5
20191117114838 43 37 0.0 0.0 0.00 0.00 0.00 91 1018.2
20191117113343 43 37 0.0 0.0 0.00 0.00 0.00 90 1018.1